Volver al catálogo

TITAN 3C TRANSTAGE DEB

LostHEO
NORAD 28807·DEBRIS·🇺🇸 United States

Lanzado Dec 21, 1965 desde Cape Canaveral Space Force Station

Loading…

Próximos Pases (próximas 24 horas)

TLE

ObsoletoSource: Space-Track

Época: May 30, 2026, 09:53 UTC

1 28807U 65108BZ  26150.41184448  .00004907  00000-0  19630-1 0  9993
2 28807  25.4002 236.1826 6852486 201.2910 104.4063  2.70404482 41714

Sigue TITAN 3C TRANSTAGE DEB en tiempo real con AllMySat

Download on the App Store